DW5310 Weather Reports


Display with metric or nautical units.
time (UTC)temp
F
wind
direction
speed
MPH
gust
MPH
rain 1hr
in
rain 24hr
in
rain mn
in
humidity
%
barometer
mb
20260509015004 64 282 0.0 0.0 0.00 0.00 0.00 50 1019.5
20260509014004 65 246 0.0 0.0 0.00 0.00 0.00 50 1019.5
20260509013005 65 267 0.0 0.0 0.00 0.00 0.00 50 1020.5
20260509011505 65 291 0.0 0.0 0.00 0.00 0.00 50 1019.5
20260509011005 65 305 0.0 0.0 0.00 0.00 0.00 50 1019.5
20260509005504 65 191 0.0 3.0 0.00 0.00 0.00 50 1019.5
20260509004504 65 238 0.0 5.0 0.00 0.00 0.00 50 1019.5
20260509004005 65 245 0.0 5.0 0.00 0.00 0.00 50 1019.5
20260509003505 66 68 0.0 0.0 0.00 0.00 0.00 50 1019.5
20260509003005 65 305 0.0 0.0 0.00 0.00 0.00 50 1020.5
20260509002504 65 214 0.0 0.0 0.00 0.00 0.00 49 1020.5
20260509002004 65 238 0.0 0.0 0.00 0.00 0.00 50 1020.5
20260509001504 65 305 0.0 2.0 0.00 0.00 0.00 50 1020.5
20260509001005 65 40 0.0 8.0 0.00 0.00 0.00 50 1020.5
20260509000504 65 215 0.0 8.0 0.00 0.00 0.00 50 1020.5
20260509000004 65 141 1.0 8.0 0.00 0.00 0.00 50 1020.5
20260508235504 66 75 0.0 3.0 0.00 0.00 0.00 50 1020.5
20260508235004 66 234 0.0 2.0 0.00 0.00 0.00 50 1020.5
20260508234504 66 279 0.0 3.0 0.00 0.00 0.00 50 1019.5
20260508234004 66 88 0.0 5.0 0.00 0.00 0.00 50 1019.5
20260508233505 66 31 1.0 5.0 0.00 0.00 0.00 50 1019.5
20260508233004 66 215 0.0 5.0 0.00 0.00 0.00 50 1019.5
20260508232505 66 133 1.0 5.0 0.00 0.00 0.00 50 1019.5
20260508232004 66 259 0.0 2.0 0.00 0.00 0.00 50 1019.5
20260508231004 66 248 0.0 7.0 0.00 0.00 0.00 50 1019.5
20260508230505 66 215 1.0 8.0 0.00 0.00 0.00 50 1019.5
20260508230005 66 145 4.0 8.0 0.00 0.00 0.00 51 1019.5
20260508225503 65 50 0.0 5.0 0.00 0.00 0.00 50 1019.5
20260508225004 66 58 0.0 8.0 0.00 0.00 0.00 51 1019.5
20260508224504 66 130 3.0 8.0 0.00 0.00 0.00 51 1020.5
20260508224004 66 113 0.0 2.0 0.00 0.00 0.00 51 1020.5
20260508223505 66 288 0.0 5.0 0.00 0.00 0.00 51 1020.5
20260508223004 65 156 1.0 5.0 0.00 0.00 0.00 52 1020.5
20260508222504 64 207 1.0 5.0 0.00 0.00 0.00 51 1020.5
20260508222004 65 114 0.0 9.0 0.00 0.00 0.00 51 1020.5
20260508221504 64 232 1.0 9.0 0.00 0.00 0.00 51 1020.5
20260508221005 65 183 0.0 5.0 0.00 0.00 0.00 51 1020.5
20260508220505 64 231 0.0 8.0 0.00 0.00 0.00 51 1020.5
20260508220004 64 149 3.0 8.0 0.00 0.00 0.00 52 1019.5
20260508215504 64 115 0.0 8.0 0.00 0.00 0.00 52 1019.5
20260508214503 64 161 0.0 7.0 0.00 0.00 0.00 52 1020.5
20260508214004 63 203 1.0 8.0 0.00 0.00 0.00 51 1020.5
20260508213504 64 107 1.0 9.0 0.00 0.00 0.00 52 1020.5
20260508212504 64 114 2.0 8.0 0.00 0.00 0.00 53 1020.5
20260508212004 64 282 1.0 6.0 0.00 0.00 0.00 53 1020.5
20260508211004 62 164 2.0 9.0 0.00 0.00 0.00 54 1020.5
20260508210504 62 141 3.0 9.0 0.00 0.00 0.00 54 1020.5
20260508205503 62 188 4.0 7.0 0.00 0.00 0.00 55 1020.5
20260508204503 62 237 0.0 10.0 0.00 0.00 0.00 56 1020.5
20260508204004 61 7 5.0 10.0 0.00 0.00 0.00 56 1020.5
20260508203503 61 189 1.0 7.0 0.00 0.00 0.00 56 1020.5
20260508203003 61 151 3.0 7.0 0.00 0.00 0.00 56 1020.5
20260508202505 61 249 1.0 6.0 0.00 0.00 0.00 56 1020.5
20260508202004 60 238 1.0 5.0 0.00 0.00 0.00 56 1020.5
20260508201504 60 267 0.0 10.0 0.00 0.00 0.00 57 1020.5
20260508201004 60 215 2.0 10.0 0.00 0.00 0.00 57 1020.5
20260508200504 61 192 3.0 9.0 0.00 0.00 0.00 57 1020.5
20260508200004 60 218 4.0 9.0 0.00 0.00 0.00 57 1020.5
20260508195503 60 219 3.0 8.0 0.00 0.00 0.00 57 1020.5
20260508195004 59 219 3.0 12.0 0.00 0.00 0.00 58 1020.5
20260508194503 59 254 3.0 12.0 0.00 0.00 0.00 58 1020.5
20260508194004 59 222 0.0 5.0 0.00 0.00 0.00 60 1020.5
20260508193504 59 248 0.0 5.0 0.00 0.00 0.00 60 1020.5
20260508193007 59 244 0.0 5.0 0.00 0.00 0.00 60 1020.5
20260508192507 58 203 1.0 5.0 0.00 0.00 0.00 60 1020.5
20260508192006 58 177 1.0 7.0 0.00 0.00 0.00 62 1020.5
20260508191506 57 262 0.0 7.0 0.00 0.00 0.00 62 1020.5
20260508191006 57 126 1.0 7.0 0.00 0.00 0.00 62 1020.5
20260508190506 57 275 0.0 9.0 0.00 0.00 0.00 61 1020.5
20260508185506 57 165 1.0 9.0 0.00 0.00 0.00 61 1020.5
20260508185007 58 270 0.0 9.0 0.00 0.00 0.00 62 1020.5
20260508184506 57 151 0.0 9.0 0.00 0.00 0.00 63 1021.5
20260508184007 57 146 2.0 8.0 0.00 0.00 0.00 64 1021.5
20260508182506 57 213 2.0 10.0 0.00 0.00 0.00 65 1020.5
20260508181506 56 231 0.0 7.0 0.00 0.00 0.00 66 1020.5
20260508181006 56 217 1.0 7.0 0.00 0.00 0.00 67 1020.5
20260508180006 56 253 0.0 7.0 0.00 0.00 0.00 67 1020.5
20260508175507 56 221 1.0 8.0 0.00 0.00 0.00 68 1020.5
20260508175007 56 256 2.0 8.0 0.00 0.00 0.00 68 1020.5
20260508174506 56 236 0.0 7.0 0.00 0.00 0.00 69 1019.5
20260508174006 56 242 0.0 8.0 0.00 0.00 0.00 70 1019.5
20260508173507 56 215 2.0 8.0 0.00 0.00 0.00 71 1019.5
20260508173006 55 162 1.0 6.0 0.00 0.00 0.00 71 1019.5
20260508172506 55 249 0.0 8.0 0.00 0.00 0.00 72 1019.5
20260508172007 54 124 3.0 8.0 0.00 0.00 0.00 71 1019.5
20260508171506 54 236 2.0 6.0 0.00 0.00 0.00 71 1018.5
20260508171006 54 215 0.0 6.0 0.00 0.00 0.00 72 1018.5
20260508170507 54 208 2.0 6.0 0.00 0.00 0.00 73 1018.5
20260508170006 53 215 1.0 6.0 0.00 0.00 0.00 73 1018.5
20260508165506 53 251 1.0 6.0 0.00 0.00 0.00 73 1018.5
20260508165007 53 165 1.0 6.0 0.00 0.00 0.00 73 1018.5
20260508164507 53 179 0.0 9.0 0.00 0.00 0.00 73 1017.5
20260508164006 53 204 4.0 9.0 0.00 0.00 0.00 73 1017.5
20260508163506 52 161 0.0 3.0 0.00 0.00 0.00 73 1017.5
20260508163006 52 289 1.0 5.0 0.00 0.00 0.00 74 1018.5
20260508162507 52 253 0.0 7.0 0.00 0.00 0.00 74 1018.5
20260508162006 52 184 1.0 7.0 0.00 0.00 0.00 73 1018.5
20260508161006 51 131 2.0 6.0 0.00 0.00 0.00 74 1017.5
20260508160507 51 202 0.0 6.0 0.00 0.00 0.00 74 1017.5
20260508160006 51 156 1.0 6.0 0.00 0.00 0.00 75 1018.5
20260508155506 51 215 1.0 5.0 0.00 0.00 0.00 75 1018.5
20260508155007 51 182 0.0 5.0 0.00 0.00 0.00 75 1018.5
20260508154506 51 216 0.0 5.0 0.00 0.00 0.00 75 1018.5
20260508154006 50 130 0.0 5.0 0.00 0.00 0.00 75 1018.5
20260508153506 50 113 1.0 8.0 0.00 0.00 0.00 76 1018.5
20260508153006 50 182 0.0 8.0 0.00 0.00 0.00 76 1018.5
20260508152506 50 154 1.0 7.0 0.00 0.00 0.00 76 1018.5
20260508152006 50 156 0.0 5.0 0.00 0.00 0.00 76 1018.5
20260508151506 50 117 0.0 5.0 0.00 0.00 0.00 76 1018.5
20260508150506 49 190 0.0 6.0 0.00 0.00 0.00 76 1018.5
20260508150006 49 140 1.0 8.0 0.00 0.00 0.00 76 1019.5
20260508145508 49 171 4.0 9.0 0.00 0.00 0.00 76 1019.5
20260508145006 50 181 2.0 9.0 0.00 0.00 0.00 77 1019.5
20260508144506 50 145 3.0 8.0 0.00 0.00 0.00 78 1018.5
20260508144007 49 142 3.0 8.0 0.00 0.00 0.00 78 1018.5
20260508143506 49 194 0.0 8.0 0.00 0.00 0.00 79 1018.5
20260508143007 49 200 2.0 8.0 0.00 0.00 0.00 78 1018.5
20260508142006 49 220 0.0 6.0 0.00 0.00 0.00 78 1018.5
20260508141506 48 183 1.0 6.0 0.00 0.00 0.00 78 1018.5
20260508141006 48 195 1.0 6.0 0.00 0.00 0.00 78 1018.5
20260508140506 48 154 0.0 5.0 0.00 0.00 0.00 77 1018.5
20260508140006 48 192 0.0 2.0 0.00 0.00 0.00 76 1018.5
20260508135506 48 226 0.0 0.0 0.00 0.00 0.00 76 1018.5
20260508135007 48 215 0.0 0.0 0.00 0.00 0.00 75 1018.5
20260508134506 48 204 0.0 0.0 0.00 0.00 0.00 75 1017.5
20260508134006 48 238 0.0 0.0 0.00 0.00 0.00 73 1017.5
20260508133506 48 260 0.0 0.0 0.00 0.00 0.00 73 1017.5
20260508132505 48 260 0.0 0.0 0.00 0.00 0.00 72 1017.5
20260508132005 48 282 0.0 0.0 0.00 0.00 0.00 72 1017.5
20260508131506 49 282 0.0 0.0 0.00 0.00 0.00 72 1017.5
20260508130505 49 260 0.0 0.0 0.00 0.00 0.00 71 1017.5
20260508130006 49 260 0.0 0.0 0.00 0.00 0.00 71 1017.5
20260508125506 49 260 0.0 0.0 0.00 0.00 0.00 71 1017.5
20260508125006 49 260 0.0 0.0 0.00 0.00 0.00 71 1017.5
20260508124506 50 260 0.0 0.0 0.00 0.00 0.00 71 1017.5
20260508124006 50 260 0.0 0.0 0.00 0.00 0.00 71 1017.5
20260508123506 50 260 0.0 0.0 0.00 0.00 0.00 71 1017.5
20260508123006 50 260 0.0 0.0 0.00 0.00 0.00 70 1017.5
20260508122506 50 260 0.0 0.0 0.00 0.00 0.00 70 1017.5
20260508122006 50 260 0.0 0.0 0.00 0.00 0.00 70 1017.5
20260508121506 50 260 0.0 0.0 0.00 0.00 0.00 70 1017.5
20260508120505 50 260 0.0 0.0 0.00 0.00 0.00 70 1017.5
20260508120006 50 260 0.0 0.0 0.00 0.00 0.00 70 1016.5
20260508115506 51 290 0.0 0.0 0.00 0.00 0.00 69 1016.5
20260508115005 51 253 0.0 0.0 0.00 0.00 0.00 69 1016.5
20260508114505 51 279 0.0 0.0 0.00 0.00 0.00 69 1016.5
20260508114005 51 263 0.0 5.0 0.00 0.00 0.00 69 1016.5
20260508113505 51 275 0.0 5.0 0.00 0.00 0.00 69 1016.5
20260508113006 51 282 0.0 5.0 0.00 0.00 0.00 69 1016.5
20260508112506 51 260 0.0 0.0 0.00 0.00 0.00 69 1016.5
20260508112006 51 271 0.0 0.0 0.00 0.00 0.00 69 1016.5
20260508111505 51 246 0.0 0.0 0.00 0.00 0.00 69 1016.5
20260508111006 51 252 0.0 0.0 0.00 0.00 0.00 69 1016.5
20260508110505 51 238 0.0 0.0 0.00 0.00 0.00 69 1016.5
20260508110006 51 260 0.0 0.0 0.00 0.00 0.00 69 1016.5
20260508105005 51 259 0.0 0.0 0.00 0.00 0.00 69 1016.5
20260508104505 51 260 0.0 0.0 0.00 0.00 0.00 69 1016.5
20260508104006 51 260 0.0 0.0 0.00 0.00 0.00 69 1016.5
20260508103006 52 260 0.0 0.0 0.00 0.00 0.00 68 1016.5
20260508102506 52 249 0.0 0.0 0.00 0.00 0.00 68 1016.5
20260508102005 52 282 0.0 0.0 0.00 0.00 0.00 68 1016.5
20260508101506 52 282 0.0 0.0 0.00 0.00 0.00 67 1016.5
20260508101006 52 282 0.0 0.0 0.00 0.00 0.00 67 1016.5
20260508100506 52 282 0.0 0.0 0.00 0.00 0.00 67 1016.5
20260508100005 52 282 0.0 0.0 0.00 0.00 0.00 66 1016.5
20260508095506 52 282 0.0 0.0 0.00 0.00 0.00 66 1016.5
20260508095006 53 282 0.0 0.0 0.00 0.00 0.00 66 1016.5
20260508094506 53 282 0.0 0.0 0.00 0.00 0.00 66 1016.5
20260508094005 53 282 0.0 0.0 0.00 0.00 0.00 66 1016.5
20260508093505 53 282 0.0 0.0 0.00 0.00 0.00 65 1016.5
20260508093006 52 282 0.0 0.0 0.00 0.00 0.00 65 1016.5
20260508092505 52 282 0.0 0.0 0.00 0.00 0.00 64 1016.5
20260508092005 52 282 0.0 0.0 0.00 0.00 0.00 63 1016.5
20260508091506 52 282 0.0 0.0 0.00 0.00 0.00 62 1016.5
20260508091005 53 282 0.0 0.0 0.00 0.00 0.00 62 1016.5
20260508090505 53 282 0.0 0.0 0.00 0.00 0.00 61 1016.5
20260508090005 53 282 0.0 0.0 0.00 0.00 0.00 61 1015.5
20260508085005 53 282 0.0 0.0 0.00 0.00 0.00 60 1015.5
20260508084505 54 282 0.0 0.0 0.00 0.00 0.00 59 1015.5
20260508084005 54 282 0.0 0.0 0.00 0.00 0.00 59 1015.5
20260508083505 54 282 0.0 0.0 0.00 0.00 0.00 58 1015.5
20260508083005 54 282 0.0 0.0 0.00 0.00 0.00 58 1015.5
20260508082505 55 282 0.0 0.0 0.00 0.00 0.00 57 1015.5
20260508082006 55 282 0.0 0.0 0.00 0.00 0.00 57 1015.5
20260508081505 55 282 0.0 0.0 0.00 0.00 0.00 57 1015.5
20260508080005 55 282 0.0 0.0 0.00 0.00 0.00 56 1015.5
20260508075506 55 282 0.0 0.0 0.00 0.00 0.00 55 1015.5
20260508074005 56 282 0.0 0.0 0.00 0.00 0.00 54 1014.5
20260508073005 56 282 0.0 0.0 0.00 0.00 0.00 54 1015.5
20260508072005 56 282 0.0 0.0 0.00 0.00 0.00 53 1015.5
20260508071505 56 282 0.0 0.0 0.00 0.00 0.00 53 1015.5
20260508071005 57 282 0.0 0.0 0.00 0.00 0.00 53 1015.5
20260508070505 57 282 0.0 0.0 0.00 0.00 0.00 53 1015.5
20260508070005 57 282 0.0 0.0 0.00 0.00 0.00 52 1015.5
20260508065506 57 282 0.0 0.0 0.00 0.00 0.00 52 1015.5
20260508065005 57 282 0.0 0.0 0.00 0.00 0.00 52 1015.5
20260508064505 57 282 0.0 0.0 0.00 0.00 0.00 52 1015.5
20260508064005 57 282 0.0 0.0 0.00 0.00 0.00 51 1015.5
20260508063505 57 282 0.0 0.0 0.00 0.00 0.00 51 1015.5
20260508063006 58 282 0.0 0.0 0.00 0.00 0.00 51 1015.5
20260508062505 58 282 0.0 0.0 0.00 0.00 0.00 51 1015.5
20260508061506 58 282 0.0 0.0 0.00 0.00 0.00 50 1015.5
20260508060005 58 282 0.0 0.0 0.00 0.00 0.00 50 1015.5
20260508055505 58 282 0.0 0.0 0.00 0.00 0.00 50 1015.5
20260508055005 59 282 0.0 0.0 0.00 0.00 0.00 49 1015.5
20260508054505 59 282 0.0 0.0 0.00 0.00 0.00 49 1015.5
20260508054005 59 282 0.0 0.0 0.00 0.00 0.00 48 1015.5
20260508053505 59 282 0.0 0.0 0.00 0.00 0.00 48 1015.5
20260508053005 59 282 0.0 0.0 0.00 0.00 0.00 48 1015.5
20260508052005 59 282 0.0 0.0 0.00 0.00 0.00 47 1015.5
20260508051504 60 282 0.0 0.0 0.00 0.00 0.00 47 1015.5
20260508051005 60 282 0.0 0.0 0.00 0.00 0.00 47 1015.5
20260508050505 60 282 0.0 0.0 0.00 0.00 0.00 46 1015.5
20260508050004 60 282 0.0 0.0 0.00 0.00 0.00 46 1015.5
20260508045505 60 282 0.0 0.0 0.00 0.00 0.00 46 1015.5
20260508045004 60 282 0.0 0.0 0.00 0.00 0.00 46 1015.5
20260508044505 60 282 0.0 0.0 0.00 0.00 0.00 46 1015.5
20260508044005 60 282 0.0 0.0 0.00 0.00 0.00 46 1015.5
20260508043505 60 305 0.0 0.0 0.00 0.00 0.00 46 1015.5
20260508043005 60 305 0.0 0.0 0.00 0.00 0.00 46 1015.5
20260508042504 61 305 0.0 0.0 0.00 0.00 0.00 46 1015.5
20260508042005 61 305 0.0 0.0 0.00 0.00 0.00 45 1015.5
20260508041505 61 305 0.0 0.0 0.00 0.00 0.00 45 1015.5
20260508041005 61 305 0.0 0.0 0.00 0.00 0.00 45 1015.5
20260508040005 61 305 0.0 0.0 0.00 0.00 0.00 45 1015.5
20260508035504 61 305 0.0 0.0 0.00 0.00 0.00 45 1015.5
20260508035008 61 305 0.0 0.0 0.00 0.00 0.00 45 1015.5
20260508034504 62 305 0.0 0.0 0.00 0.00 0.00 45 1014.5
20260508034004 62 305 0.0 0.0 0.00 0.00 0.00 45 1014.5
20260508033505 62 305 0.0 0.0 0.00 0.00 0.00 45 1014.5
20260508033004 62 305 0.0 0.0 0.00 0.00 0.00 46 1013.5
20260508032005 62 282 0.0 0.0 0.00 0.00 0.00 46 1013.5
20260508031504 62 282 0.0 0.0 0.00 0.00 0.00 46 1014.5
20260508031005 63 282 0.0 0.0 0.00 0.00 0.00 45 1014.5
20260508030505 63 282 0.0 0.0 0.00 0.00 0.00 45 1014.5
20260508030004 63 282 0.0 0.0 0.00 0.00 0.00 46 1013.5
20260508025505 63 282 0.0 0.0 0.00 0.00 0.00 46 1013.5
20260508025004 64 282 0.0 0.0 0.00 0.00 0.00 46 1013.5
20260508024505 64 282 0.0 0.0 0.00 0.00 0.00 45 1014.5
20260508024004 64 282 0.0 0.0 0.00 0.00 0.00 45 1014.5
20260508023504 64 260 0.0 0.0 0.00 0.00 0.00 46 1014.5
20260508023005 65 260 0.0 0.0 0.00 0.00 0.00 45 1014.5
20260508022505 65 260 0.0 0.0 0.00 0.00 0.00 45 1014.5
20260508021005 66 182 0.0 0.0 0.00 0.00 0.00 45 1014.5
20260508020505 66 58 0.0 0.0 0.00 0.00 0.00 45 1014.5
20260508020006 66 58 0.0 0.0 0.00 0.00 0.00 45 1014.5